Skip Page Navigation
NASA JPL Caltech
NASA Logo - Jet Propulsion Laboratory + View the NASA Portal
+ Center for Near-Earth Object Studies
JPL Home Earth Solar System Stars & Galaxies Technology
JPL Solar System Dynamics
BODIES ORBITS EPHEMERIDES TOOLS PHYSICAL DATA DISCOVERY FAQ SITE MAP
JPL Small-Body Database Browser
Search: [ help ]  
14574 Payette (1998 QR58)
Classification: Main-belt Asteroid          SPK-ID: 2014574
Ephemeris | Orbit Diagram | Orbital Elements | Mission Design | Physical Parameters | Discovery Circumstances ]

[ hide orbit diagram ]

For accurate long-term ephemerides, please instead use our Horizons system.This orbit viewer was implemented using two-body methods, and hence should not be used for determining accurate long-term trajectories (over several years or decades) or planetary encounter circumstances.


[ revert to old Java-based viewer ]

Orbital Elements at Epoch 2459000.5 (2020-May-31.0) TDB
Reference: JPL 25 (heliocentric ecliptic J2000)
 Element Value Uncertainty (1-sigma)   Units 
e .1613279450327319 2.9535e-08  
a 2.31475773365696 7.005e-09 au
q 1.941322625237459 6.9545e-08 au
i 5.587656231415977 5.6038e-06 deg
node 352.9284774069311 3.3279e-05 deg
peri 78.59476179537236 3.804e-05 deg
M .2634476400334404 1.9046e-05 deg
tp 2458999.558655576385
(2020-May-30.05865558)
6.8052e-05 TDB
period 1286.342866683176
3.52
5.8392e-06
1.599e-08
d
yr
n .2798631759262263 1.2704e-09 deg/d
Q 2.688192842076461 8.1351e-09 au
  Orbit Determination Parameters
   # obs. used (total)      1066  
   data-arc span      15715 days (43.03 yr)  
   first obs. used      1977-10-16  
   last obs. used      2020-10-25  
   planetary ephem.      DE431  
   SB-pert. ephem.      SB431-N16  
   condition code      0  
   norm. resid. RMS      .58137  
   source      ORB  
   producer      Otto Matic  
   solution date      2020-Nov-13 02:39:05  

Additional Information
 Earth MOID = .964841 au 
 Jupiter MOID = 2.59485 au 
 T_jup = 3.558 
[ show covariance matrix ]

Ephemeris | Orbit Diagram | Orbital Elements | Mission Design | Physical Parameters | Discovery Circumstances ]

Physical Parameter Table
Parameter Symbol Value Units Sigma Reference Notes
absolute magnitude H 15.1   n/a MPO431668  
diameter diameter 1.954 km 0.439 urn:nasa:pds:neowise_diameters_albedos::2.0[mainbelt] (http://adsabs.harvard.edu/abs/2011ApJ...741...68M)  
geometric albedo albedo 0.463   0.179 urn:nasa:pds:neowise_diameters_albedos::2.0[mainbelt] (http://adsabs.harvard.edu/abs/2011ApJ...741...68M)  

14574 Payette           Discovered 1998 Aug. 30 by Spacewatch at Kitt Peak.
Julie Payette (b. 1963) has been a member of the Canadian astronaut corps since 1992 and flew on space shuttle mission STS-96. She has worked on robotics for the NASA astronaut office.
NOTE: some special characters may not display properly (any characters within {} are an attempt to place the proper accent above a character)
Reference: 20030614/MPCPages.arcLast Updated: 2005-04-26

Alternate Designations
 1998 QR58 = 2456 T-3 
Ephemeris | Orbit Diagram | Orbital Elements | Mission Design | Physical Parameters | Discovery Circumstances ]
ABOUT SSD CREDITS/AWARDS PRIVACY/COPYRIGHT GLOSSARY LINKS
FirstGov 2020-Nov-24 16:24 UT
(server date/time)  
NASA Home Page
Site Manager:   Ryan S. Park
Webmaster  Alan B. Chamberlin